ARIANE 6 R/B, 60239

Orbit data source: Space-Track

ARIANE 6 R/B, 60239 is space debris in LEO originally from a launch on Tue, 09 Jul 2024 UTC via an ARIANE 62 launch vehicle from the French Guiana (FRGUI). Debris objects in space refer to the collection of defunct objects orbiting the Earth. Examples of debris include non-operational satellites, rocket bodies, and fragments generated from explosions, collisions, or faulty payload assembly.

Loading next visibility...
Identifier
60239, 2024-128E
Orbit
LEO
Last TLE update
17 hours ago
Origin
Manufacturer
ArianeGroup
Mission
Spacecraft
Bus & Motor
ARI6DP, Unknown motor
Mass
~7,711 kg wet, 1,600 kg dry
Launch date (UTC)
2024-07-09 (10 months ago)
Launch vehicle
ARIANE 62
Launch site
French Guiana (FRGUI)
Object type
Payload
Rocket body
Debris
Shape & HBR
Cyl + Trunc Cone, 14.1 m
Radar Cross Section
72.787 m², Large (>1 m²)

Expand to show TLE details & history

TLE from 17 hours ago
0 ARIANE 6 R/B
1 60239U 24128E   25138.76259990  .00001429  00000-0  13146-3 0  9997
2 60239  62.0103 159.4941 0051059  54.1739 306.4078 14.98919205 46877
Epoch: 2025-05-18T18:18Z
TLE epoch observation values (Epoch: 2025-05-18T18:18:08.631Z)
Latitude
-0.00004°
Longitude
8.27321°
Altitude
551.063 km
Speed
7.598 km/s
True Right ascension
10h 37m 58s
True Declination
0° 00' 00"
Sunlit
Object was in daylight at epoch
Visualization orbit readout
Latitude
-61.79978°
Longitude
-93.86666°
Altitude
623.08 km
Speed
7.53 km/s
Apparent Right ascension
06h 33m 14s
Apparent Declination
-55° 59' 27"
Sunlit
Object is in daylight
Visualization observer readout
Local Sidereal Time
20:18:36
Azimuth
141.69° SSE
Elevation
-66.399°
Doppler factor
1
Orbital elements
Apogee altitude
604.636 km
Perigee altitude
533.691 km
Semi-major axis
6,947.301 km
Eccentricity
0.00511
Inclination
62.0103°
RAAN
159.4941°
Arg. of periapsis
54.1739°
True anomaly
Unknown
Mean anomaly
306.4078°
Eccentric anomaly
Unknown
Mean motion
3.74817 °/min
Orbital period
96.05 mins
BSTAR
0.00013146
Loading maneuver chart data...
Loading SW <> Apogee altitude chart data...
Loading historical data...
Loading historical data...
Loading historical data...
Loading historical data...
Loading historical data...
Loading historical data...
Loading historical data...

ARIANE 6 R/B Visibility forecast

Observer location: undefined°, undefined°

Span
Click to sort rows by Start time (UTC) header in descending order
Start Az.
Max El. time (UTC)
Max El. Az.
Max El.
End time (UTC)
End Az.
7 mins2025-05-19 12:27:31.234Z306.313° NW2025-05-19 12:31:31.234Z228.864° WSW29.922°2025-05-19 12:34:31.234Z177.205° S
5 mins2025-05-20 02:28:31.234Z166.431° S2025-05-20 02:30:31.234Z119.457° SE27.224°2025-05-20 02:33:31.234Z60.252° ENE
5 mins2025-05-20 04:07:31.234Z271.134° WNW2025-05-20 04:09:31.234Z311.974° NW23.143°2025-05-20 04:12:31.234Z8.384° NNE
5 mins2025-05-20 10:51:31.234Z355.6° N2025-05-20 10:53:31.234Z43.719° NE29.763°2025-05-20 10:56:31.234Z107.75° ESE
|